[[{"header":{"parameterUnit":"m.s-1","parameterCategory":1,"la1":30.2991,"la2":30.254,"lo1":-89.0895,"lo2":-89.0444,"dy":0.0017,"dx":0.0017,"nx":28,"ny":28,"refTime":"2024-06-20T21:00:00:Z","depth":0,"parameterNumber":2,"parameterNumberName":"U-component_of_WINDS"},"data":[0,0,0,0,0,0,0,0,0,0,0,0,0,0,0,0,0,0,0,0,0,0,0,0,0,0,0,0,0,0,0,0,0,0,0,0,0,0,0,0,0,0,0,0,0,0,0,0,0,0,0,0,0,0,0,0,0,0,-0.9288,-0.9287,0,-0.9147,-0.9145,-0.9143,-0.9077,-0.9077,-0.9077,-0.9078,-0.8933,-0.8929,-0.8925,0,0,0,0,0,0,0,0,0,0,0,0,0,-0.9503,-0.9499,-0.9288,-0.9286,-0.9285,-0.9147,-0.9145,-0.9143,-0.9077,-0.9077,-0.9078,-0.9078,-0.8934,-0.893,-0.8925,0,0,0,0,0,0,0,0,0,0,0,0,0,-0.9391,-0.9498,-0.9289,-0.9235,-0.9229,-0.9147,-0.9145,-0.9143,-0.9077,-0.9077,-0.9078,-0.9078,-0.8936,-0.893,-0.8924,-0.8885,0,0,-0.8906,-0.8904,0,0,0,0,0,0,0,0,-0.9397,-0.9383,-0.9245,-0.9239,-0.9232,-0.913,-0.9168,-0.9056,-0.9077,-0.9135,-0.9078,-0.9078,-0.8998,-0.8987,-0.8961,-0.8878,-0.8872,-0.8906,-0.8902,-0.89,-0.8898,0,0,0,0,0,0,0,-0.9405,-0.9388,-0.9232,-0.9243,-0.9235,-0.9219,-0.9203,-0.9146,-0.9068,-0.913,-0.9125,-0.9109,-0.8995,-0.8966,-0.8957,-0.887,-0.8906,-0.8901,-0.8897,-0.8895,-0.875,-0.875,0,0,0,0,0,0,-0.9421,-0.9395,-0.9237,-0.9228,-0.9316,-0.9215,-0.9197,-0.9162,-0.9068,-0.9054,-0.9109,-0.9106,-0.8976,-0.8964,-0.8951,-0.89,-0.89,-0.8894,-0.8891,-0.875,-0.875,-0.875,0,0,0,0,0,0,-0.9426,-0.9408,-0.9242,-0.931,-0.9288,-0.9211,-0.9172,-0.916,-0.9131,-0.9052,-0.9038,-0.9094,-0.8976,-0.896,-0.8902,-0.8894,-0.8892,-0.8886,-0.8751,-0.875,-0.875,-0.8796,0,0,0,0,0,0,-0.9432,-0.941,-0.9394,-0.931,-0.9285,-0.9195,-0.9172,-0.9157,-0.9121,-0.9116,-0.9035,-0.9021,-0.8975,-0.8912,-0.8897,-0.8886,-0.8882,-0.8751,-0.875,-0.875,-0.8795,-0.8797,-0.8799,0,0,0,0,0,-0.944,-0.9412,-0.9393,-0.9374,-0.9263,-0.9195,-0.918,-0.9127,-0.912,-0.9104,-0.9054,-0.9024,-0.8898,-0.8906,-0.8889,-0.8876,-0.8751,-0.8751,-0.875,-0.8794,-0.8797,-0.8799,0,0,0,0,0,0,-0.9496,-0.94,-0.9378,-0.9322,-0.9267,-0.9184,-0.9161,-0.9132,-0.9078,-0.9076,-0.9013,-0.8995,-0.8944,-0.8904,-0.8916,-0.8834,-0.8822,-0.8818,-0.8861,-0.8863,-0.8865,-0.8876,-0.8877,0,0,0,0,0,-0.9502,-0.9454,-0.9373,-0.9332,-0.9305,-0.9238,-0.9207,-0.9171,-0.9112,-0.9088,-0.9034,-0.8978,-0.8926,-0.8892,-0.884,-0.8789,-0.8771,-0.8772,-0.8774,-0.8776,-0.8773,-0.8745,-0.8744,-0.8747,-0.8747,-0.8747,0,0,-0.9513,-0.9455,-0.9428,-0.9341,-0.9295,-0.9248,-0.9219,-0.917,-0.9135,-0.9081,-0.9023,-0.8982,-0.8915,-0.8862,-0.8835,-0.8827,-0.8769,-0.8776,-0.8778,-0.8773,-0.8744,-0.8744,-0.8744,-0.8747,-0.8747,-0.8747,0,0,-0.9509,-0.946,-0.942,-0.9375,-0.9305,-0.9261,-0.9251,-0.9173,-0.9143,-0.9085,-0.9044,-0.9001,-0.8912,-0.8867,-0.8832,-0.8814,-0.8785,-0.8799,-0.8809,-0.8782,-0.8782,-0.8781,-0.8775,-0.8774,-0.8796,-0.8796,-0.8796,0,-0.9531,-0.9458,-0.9404,-0.9357,-0.9321,-0.927,-0.923,-0.9188,-0.9105,-0.9081,-0.9074,-0.8962,-0.8913,-0.8849,-0.8845,-0.8818,-0.8806,-0.8807,-0.8786,-0.8785,-0.8784,-0.8777,-0.8775,-0.8798,-0.8798,-0.8798,-0.8797,0,-0.949,-0.944,-0.9417,-0.9338,-0.9299,-0.9256,-0.9195,-0.9162,-0.9131,-0.9088,-0.903,-0.897,-0.8905,-0.8888,-0.8856,-0.8819,-0.8816,-0.8799,-0.8785,-0.8787,-0.878,-0.8777,-0.8801,-0.88,-0.88,-0.8799,0,0,-0.9515,-0.9408,-0.94,-0.9364,-0.9285,-0.9245,-0.9201,-0.9138,-0.9111,-0.9056,-0.9017,-0.8945,-0.8928,-0.8889,-0.8852,-0.8828,-0.8818,-0.8813,-0.8811,-0.8816,-0.8775,-0.8789,-0.8786,-0.8799,-0.8799,-0.8798,-0.8781,0,-0.95,-0.9418,-0.9368,-0.9306,-0.926,-0.9213,-0.9174,-0.9122,-0.9081,-0.9037,-0.8992,-0.8941,-0.8923,-0.8899,-0.8874,-0.8825,-0.8809,-0.8826,-0.8763,-0.8762,-0.8781,-0.8782,-0.8796,-0.8783,-0.8777,-0.8777,-0.8776,0,-0.9471,-0.9418,-0.9351,-0.9278,-0.9257,-0.9223,-0.9162,-0.912,-0.906,-0.9032,-0.899,-0.8953,-0.8905,-0.8897,-0.883,-0.8843,-0.8815,-0.8787,-0.8785,-0.8777,-0.8769,-0.8774,-0.8777,-0.8775,-0.8771,-0.8772,-0.8772,0,-0.9497,-0.9408,-0.9357,-0.9328,-0.9241,-0.9219,-0.9181,-0.9122,-0.9087,-0.9034,-0.9011,-0.8954,-0.8922,-0.8879,-0.8828,-0.8826,-0.8767,-0.8754,-0.8743,-0.8744,-0.8732,-0.8733,-0.873,-0.8715,-0.8715,-0.8715,-0.8715,0,-0.9485,-0.9446,-0.9367,-0.9336,-0.9292,-0.9236,-0.9193,-0.9153,-0.91,-0.9061,-0.9017,-0.8981,-0.8916,-0.8872,-0.8832,-0.8784,-0.877,-0.8747,-0.8736,-0.875,-0.8753,-0.873,-0.873,-0.8714,-0.8714,-0.8714,-0.8714,0,-0.9505,-0.945,-0.9392,-0.9315,-0.9295,-0.9266,-0.92,-0.9169,-0.9127,-0.9077,-0.9062,-0.8996,-0.8943,-0.8888,-0.8816,-0.8789,-0.8742,-0.8728,-0.8762,-0.8756,-0.8748,-0.875,-0.873,-0.8724,-0.8714,-0.8714,-0.8714,0,-0.95,-0.9469,-0.939,-0.936,-0.9324,-0.9277,-0.9242,-0.9187,-0.9152,-0.9083,-0.906,-0.9003,-0.8955,-0.8872,-0.8818,-0.8762,-0.8747,-0.8744,-0.8738,-0.8753,-0.8747,-0.8749,-0.8746,-0.8745,-0.8746,-0.8746,-0.8746,0,-0.9498,-0.9474,-0.9425,-0.9367,-0.9327,-0.9279,-0.9229,-0.9208,-0.9143,-0.9107,-0.9051,-0.9014,-0.8941,-0.8885,-0.8824,-0.8786,-0.8756,-0.8749,-0.8743,-0.8757,-0.8778,-0.8766,-0.8768,-0.8749,-0.8749,-0.8749,-0.8749,-0.8748,-0.9506,-0.9477,-0.9416,-0.9364,-0.9321,-0.9276,-0.9243,-0.9197,-0.915,-0.9086,-0.9057,-0.9002,-0.8944,-0.8859,-0.8822,-0.8779,-0.877,-0.8762,-0.876,-0.8759,-0.8763,-0.8786,-0.8768,-0.8767,-0.8767,-0.8767,-0.8767,0,-0.9501,-0.9461,-0.9413,-0.9346,-0.9305,-0.9281,-0.9225,-0.9192,-0.9145,-0.9093,-0.9047,-0.8985,-0.8931,-0.8874,-0.8817,-0.8794,-0.8779,-0.8781,-0.8782,-0.8774,-0.8773,-0.8784,-0.8794,-0.8794,-0.8794,-0.8794,-0.8794,-0.8794,-0.9494,-0.9444,-0.9413,-0.9341,-0.9301,-0.9247,-0.9217,-0.9176,-0.9135,-0.9067,-0.9023,-0.8986,-0.8932,-0.8872,-0.8822,-0.8807,-0.8788,-0.8795,-0.8775,-0.8776,-0.8774,-0.8772,-0.8781,-0.8791,-0.8791,-0.8779,-0.8779,-0.8779]},{"header":{"parameterUnit":"m.s-1","parameterCategory":1,"la1":30.2991,"la2":30.254,"lo1":-89.0895,"lo2":-89.0444,"dy":0.0017,"dx":0.0017,"nx":28,"ny":28,"refTime":"2024-06-20T21:00:00:Z","depth":0,"parameterNumber":3,"parameterNumberName":"V-component_of_WINDS"},"data":[0,0,0,0,0,0,0,0,0,0,0,0,0,0,0,0,0,0,0,0,0,0,0,0,0,0,0,0,0,0,0,0,0,0,0,0,0,0,0,0,0,0,0,0,0,0,0,0,0,0,0,0,0,0,0,0,0,0,1.2021,1.2022,0,1.204,1.204,1.204,1.2052,1.2052,1.2053,1.2053,1.2071,1.2072,1.2072,0,0,0,0,0,0,0,0,0,0,0,0,0,1.1996,1.1996,1.2021,1.2022,1.2022,1.204,1.204,1.204,1.2052,1.2052,1.2053,1.2053,1.2071,1.2071,1.2072,0,0,0,0,0,0,0,0,0,0,0,0,0,1.201,1.1996,1.2021,1.203,1.2031,1.204,1.204,1.2041,1.2052,1.2052,1.2053,1.2053,1.2071,1.2071,1.2072,1.2074,0,0,1.2074,1.2074,0,0,0,0,0,0,0,0,1.2009,1.2011,1.2029,1.2029,1.2031,1.2044,1.2038,1.2052,1.2052,1.2044,1.2053,1.2053,1.2062,1.2063,1.2067,1.2075,1.2075,1.2074,1.2074,1.2075,1.2075,0,0,0,0,0,0,0,1.2008,1.201,1.2029,1.2029,1.203,1.2033,1.2035,1.2041,1.2052,1.2045,1.2046,1.2048,1.2063,1.2066,1.2067,1.2076,1.2074,1.2075,1.2075,1.2075,1.2086,1.2086,0,0,0,0,0,0,1.2006,1.2009,1.2028,1.2029,1.202,1.2033,1.2036,1.204,1.2052,1.2054,1.2048,1.2048,1.2065,1.2066,1.2068,1.207,1.2075,1.2075,1.2076,1.2086,1.2086,1.2086,0,0,0,0,0,0,1.2005,1.2007,1.2027,1.2019,1.2022,1.2033,1.2038,1.204,1.2043,1.2054,1.2056,1.2049,1.2065,1.2067,1.2072,1.2071,1.2076,1.2076,1.2086,1.2086,1.2086,1.2076,0,0,0,0,0,0,1.2004,1.2007,1.2008,1.2019,1.2023,1.2032,1.2038,1.204,1.2044,1.2045,1.2056,1.2058,1.2065,1.2071,1.2073,1.2072,1.2077,1.2086,1.2086,1.2086,1.2076,1.2075,1.2075,0,0,0,0,0,1.2003,1.2004,1.2008,1.201,1.2024,1.2032,1.2033,1.2042,1.2044,1.2045,1.2052,1.2058,1.2071,1.2072,1.2074,1.2073,1.2086,1.2086,1.2086,1.2077,1.2075,1.2075,0,0,0,0,0,0,1.1992,1.2006,1.201,1.2015,1.2022,1.2034,1.2035,1.204,1.2047,1.2047,1.2057,1.2059,1.2064,1.2069,1.2069,1.2075,1.2079,1.2079,1.2072,1.2071,1.207,1.2068,1.2077,0,0,0,0,0,1.199,1.1996,1.2007,1.201,1.2014,1.2024,1.2027,1.2033,1.2041,1.2044,1.2051,1.2058,1.2064,1.2068,1.2074,1.2077,1.208,1.2078,1.2077,1.2076,1.2076,1.2078,1.2077,1.2085,1.2085,1.2085,0,0,1.1987,1.1995,1.1997,1.2008,1.2014,1.2019,1.2026,1.2031,1.2035,1.2044,1.205,1.2056,1.2064,1.2068,1.2071,1.2073,1.2075,1.2076,1.2075,1.2076,1.2078,1.2077,1.2076,1.2085,1.2085,1.2085,0,0,1.1982,1.1989,1.1992,1.1998,1.2007,1.2014,1.2015,1.2026,1.203,1.2035,1.2043,1.2047,1.2057,1.2063,1.2067,1.2065,1.207,1.2066,1.2062,1.2063,1.2063,1.2062,1.2061,1.2061,1.2066,1.2066,1.2066,0,1.1976,1.1984,1.1993,1.1997,1.2002,1.2011,1.2014,1.202,1.203,1.2033,1.2036,1.2048,1.2054,1.206,1.206,1.2063,1.2064,1.2065,1.2062,1.2062,1.2062,1.2061,1.206,1.2066,1.2066,1.2066,1.2066,0,1.1976,1.1981,1.1983,1.1993,1.1997,1.2001,1.2011,1.2014,1.202,1.2026,1.2031,1.2039,1.2047,1.2049,1.2054,1.2055,1.2056,1.206,1.2065,1.206,1.2059,1.2059,1.2065,1.2065,1.2065,1.2065,0,0,1.1965,1.198,1.198,1.1985,1.1996,1.2,1.2004,1.2012,1.2015,1.2022,1.2025,1.2033,1.2037,1.2042,1.2048,1.2049,1.2047,1.2053,1.2054,1.2052,1.2048,1.2045,1.2044,1.205,1.205,1.205,1.2047,0,1.1962,1.197,1.1978,1.1983,1.1988,1.1997,1.2,1.2007,1.2013,1.2018,1.2024,1.203,1.2035,1.2038,1.204,1.2047,1.2046,1.2047,1.2054,1.2054,1.2051,1.2044,1.2041,1.2038,1.2047,1.2047,1.2047,0,1.196,1.1966,1.1972,1.1982,1.1984,1.1987,1.1995,1.1999,1.2007,1.2011,1.2017,1.2023,1.2028,1.2031,1.2038,1.2038,1.2041,1.2045,1.2045,1.2046,1.205,1.2044,1.2037,1.2036,1.2047,1.2047,1.2047,0,1.1951,1.1961,1.1965,1.1969,1.1981,1.1983,1.1988,1.1996,1.2,1.2007,1.201,1.2017,1.202,1.2026,1.2034,1.2036,1.2039,1.2044,1.2043,1.2042,1.2043,1.2042,1.2035,1.2045,1.2045,1.2045,1.2045,0,1.1946,1.1949,1.1962,1.1964,1.1968,1.1977,1.198,1.1986,1.1993,1.1997,1.2005,1.2009,1.2019,1.2024,1.203,1.2034,1.2036,1.2039,1.2041,1.2039,1.2038,1.2041,1.2041,1.2045,1.2045,1.2045,1.2045,0,1.1937,1.1945,1.1951,1.1962,1.1965,1.1967,1.1976,1.1979,1.1985,1.199,1.1992,1.2002,1.2008,1.2016,1.2025,1.2029,1.2032,1.2035,1.203,1.2031,1.2029,1.2029,1.2023,1.2023,1.2033,1.2033,1.2033,0,1.1934,1.1936,1.1947,1.195,1.1955,1.196,1.1964,1.1973,1.1977,1.1986,1.1988,1.1995,1.2,1.201,1.2018,1.2024,1.2027,1.2025,1.2028,1.2026,1.2027,1.2026,1.2027,1.2024,1.2023,1.2023,1.2023,0,1.1926,1.193,1.1936,1.1943,1.1947,1.1953,1.196,1.1962,1.1972,1.1976,1.1983,1.1987,1.1996,1.2002,1.201,1.2015,1.2021,1.2022,1.2022,1.2019,1.2016,1.2018,1.2027,1.2022,1.2022,1.2022,1.2022,1.2022,1.192,1.1922,1.193,1.1936,1.1942,1.1947,1.1951,1.1957,1.1963,1.197,1.1976,1.1981,1.1989,1.2,1.2005,1.201,1.2012,1.2012,1.2012,1.2012,1.2011,1.2016,1.2011,1.2011,1.2011,1.2012,1.2012,0,1.1913,1.1918,1.1924,1.1932,1.1937,1.1942,1.1949,1.1952,1.1957,1.1964,1.197,1.1977,1.1983,1.1991,1.1998,1.2,1.2003,1.2002,1.2002,1.2003,1.2009,1.2008,1.2,1.2,1.2,1.2,1.2,1.2,1.191,1.1914,1.1919,1.1926,1.1931,1.1937,1.1941,1.1946,1.1951,1.1959,1.1964,1.197,1.1977,1.1985,1.1991,1.1993,1.1995,1.1993,1.1996,1.2001,1.2002,1.2003,1.2003,1.1993,1.1993,1.1989,1.1989,1.1989]}]]